Find Starlink 37350

NORAD ID: 68751 Int'l Des: 2026-082 Owner: SPXS Country: US Constellation: starlink operational
LEOCIRCULARRETROGRADE

Live Position

Loading 3D Globe...

About Starlink 37350

Description loading...

Upcoming Passes

Passes for default location (London). Set your location on the main map for personalized predictions.

Altitude History

Loading altitude history...

Two-Line Element Set

1 68751C 26082Y 26105.39909722 .00385570 00000+0 44815-3 0 1051
2 68751 97.2877 326.8199 0010788 268.1272 3.7840 16.08507463 12
Epoch: Apr 15, 2026 • Age: 16 hours

Current Status

Altitude 252.8 km
Velocity 7.76 km/s
Sub-Earth Point 10.96°N, 78.85°W
Launch Date Apr 15, 2026
Age N/A
Type internet

Technical Details

Classification Payload
Mass 575.00 kg
Dry Mass 530.00 kg
Total Mass 575.00 kg
Length 0.30 m
Diameter 4.10 m
Span 29.00 m
Shape Box + pan
Manufacturer SPXS
Bus Type Starlink V2MO
Phase Status In Orbit
Owner/State SPXS/US

Most Searched